When you browse on this site, cookies collect data to enhance your experience and personalize the content and advertising you see.
Visit our Privacy Policy to learn more. By continuing to use the site, you agree to this use of cookies and data.

Hourly Weather Monte Patria

Today, 6 July, Monday

Time Temperature Precipitation Wind Pressure Humidity
00:00 +11°C° 0 mm 0 mps 721 mmHg 71%
01:00 +12°C° 0 mm 1 mps 721 mmHg 70%
02:00 +12°C° 0 mm 1 mps 721 mmHg 68%
03:00 +12°C° 0 mm 1 mps 721 mmHg 65%
04:00 +11°C° 0 mm 1 mps 720 mmHg 63%
05:00 +12°C° 0 mm 1 mps 720 mmHg 60%
06:00 +12°C° 0 mm 1 mps 720 mmHg 58%
07:00 +12°C° 0 mm 1 mps 720 mmHg 55%
08:00 +13°C° 0 mm 1 mps 720 mmHg 53%
09:00 +15°C° 0 mm 1 mps 721 mmHg 50%
10:00 +16°C° 0 mm 1 mps 721 mmHg 48%
11:00 +18°C° 0 mm 1 mps 720 mmHg 48%
12:00 +18°C° 0 mm 1 mps 720 mmHg 48%
13:00 +18°C° 0 mm 2 mps 719 mmHg 48%
14:00 +17°C° 0 mm 2 mps 720 mmHg 52%
15:00 +17°C° 0 mm 2 mps 720 mmHg 57%
16:00 +16°C° 0 mm 2 mps 720 mmHg 61%
17:00 +15°C° 0 mm 1 mps 720 mmHg 66%
18:00 +15°C° 0 mm 1 mps 721 mmHg 71%
19:00 +13°C° 0 mm 0 mps 721 mmHg 76%
20:00 +13°C° 0 mm 0 mps 721 mmHg 78%
21:00 +12°C° 0 mm 0 mps 722 mmHg 80%
22:00 +13°C° 0 mm 1 mps 722 mmHg 82%
23:00 +11°C° 0 mm 0 mps 722 mmHg 85%

Tomorrow, 7 July, Tuesday

Time Temperature Precipitation Wind Pressure Humidity
00:00 +11°C° 0 mm 0 mps 722 mmHg 88%
01:00 +10°C° 0 mm 0 mps 722 mmHg 91%
02:00 +10°C° 0.1 mm 0 mps 723 mmHg 91%
03:00 +9°C° 0.1 mm 0 mps 723 mmHg 90%
04:00 +9°C° 0.1 mm 0 mps 723 mmHg 90%
05:00 +9°C° 0 mm 0 mps 724 mmHg 89%
06:00 +9°C° 0 mm 0 mps 725 mmHg 87%
07:00 +9°C° 0 mm 0 mps 725 mmHg 86%
08:00 +10°C° 0 mm 0 mps 725 mmHg 83%
09:00 +12°C° 0 mm 1 mps 726 mmHg 79%
10:00 +13°C° 0 mm 1 mps 726 mmHg 76%
11:00 +14°C° 0 mm 1 mps 726 mmHg 73%
12:00 +14°C° 0 mm 1 mps 725 mmHg 71%
13:00 +15°C° 0 mm 1 mps 725 mmHg 68%
14:00 +15°C° 0 mm 2 mps 725 mmHg 69%
15:00 +15°C° 0 mm 2 mps 726 mmHg 70%
16:00 +15°C° 0 mm 2 mps 726 mmHg 71%
17:00 +14°C° 0 mm 1 mps 726 mmHg 72%
18:00 +13°C° 0 mm 1 mps 727 mmHg 74%
19:00 +13°C° 0 mm 1 mps 727 mmHg 75%
20:00 +12°C° 0 mm 1 mps 727 mmHg 73%
21:00 +12°C° 0 mm 1 mps 727 mmHg 71%
22:00 +12°C° 0 mm 1 mps 727 mmHg 68%
23:00 +12°C° 0 mm 1 mps 727 mmHg 68%

Day after tomorrow, 8 July, Wednesday

Time Temperature Precipitation Wind Pressure Humidity
00:00 +11°C° 0 mm 1 mps 727 mmHg 68%
01:00 +11°C° 0 mm 1 mps 726 mmHg 67%
02:00 +11°C° 0 mm 1 mps 726 mmHg 65%
03:00 +11°C° 0 mm 1 mps 726 mmHg 63%
04:00 +11°C° 0 mm 1 mps 726 mmHg 61%
05:00 +10°C° 0 mm 1 mps 726 mmHg 60%
06:00 +10°C° 0 mm 1 mps 726 mmHg 58%
07:00 +10°C° 0 mm 1 mps 726 mmHg 56%
08:00 +13°C° 0 mm 1 mps 726 mmHg 48%
09:00 +15°C° 0 mm 1 mps 726 mmHg 39%
10:00 +16°C° 0 mm 0 mps 726 mmHg 30%
11:00 +19°C° 0 mm 1 mps 725 mmHg 28%
12:00 +20°C° 0 mm 1 mps 725 mmHg 25%
13:00 +21°C° 0 mm 1 mps 725 mmHg 23%
14:00 +21°C° 0 mm 1 mps 725 mmHg 27%
15:00 +21°C° 0 mm 1 mps 725 mmHg 31%
16:00 +20°C° 0 mm 1 mps 725 mmHg 35%
17:00 +19°C° 0 mm 1 mps 725 mmHg 40%
18:00 +18°C° 0 mm 1 mps 725 mmHg 44%
19:00 +15°C° 0 mm 1 mps 725 mmHg 48%
20:00 +15°C° 0 mm 1 mps 725 mmHg 45%
21:00 +15°C° 0 mm 1 mps 725 mmHg 43%
22:00 +15°C° 0 mm 1 mps 725 mmHg 41%
23:00 +14°C° 0 mm 1 mps 724 mmHg 39%

9 July, Thursday

Time Temperature Precipitation Wind Pressure Humidity
00:00 +14°C° 0 mm 1 mps 724 mmHg 38%
01:00 +14°C° 0 mm 1 mps 724 mmHg 36%
02:00 +14°C° 0 mm 1 mps 724 mmHg 35%
03:00 +13°C° 0 mm 1 mps 723 mmHg 33%
04:00 +13°C° 0 mm 1 mps 723 mmHg 32%
05:00 +13°C° 0 mm 1 mps 723 mmHg 30%
06:00 +13°C° 0 mm 1 mps 723 mmHg 29%
07:00 +13°C° 0 mm 1 mps 723 mmHg 28%
08:00 +16°C° 0 mm 1 mps 724 mmHg 24%
09:00 +20°C° 0 mm 1 mps 724 mmHg 20%
10:00 +23°C° 0 mm 1 mps 724 mmHg 17%
11:00 +23°C° 0 mm 1 mps 724 mmHg 17%
12:00 +24°C° 0 mm 1 mps 724 mmHg 18%
13:00 +25°C° 0 mm 1 mps 723 mmHg 18%
14:00 +24°C° 0 mm 1 mps 723 mmHg 23%
15:00 +24°C° 0 mm 1 mps 723 mmHg 28%
16:00 +23°C° 0 mm 1 mps 723 mmHg 32%
17:00 +21°C° 0 mm 1 mps 723 mmHg 36%
18:00 +20°C° 0 mm 1 mps 723 mmHg 40%
19:00 +18°C° 0 mm 1 mps 723 mmHg 44%
20:00 +18°C° 0 mm 1 mps 723 mmHg 43%
21:00 +16°C° 0 mm 1 mps 723 mmHg 41%
22:00 +16°C° 0 mm 1 mps 723 mmHg 40%
23:00 +16°C° 0 mm 1 mps 723 mmHg 38%

10 July, Friday

Time Temperature Precipitation Wind Pressure Humidity
00:00 +16°C° 0 mm 1 mps 723 mmHg 36%
01:00 +15°C° 0 mm 1 mps 723 mmHg 35%
02:00 +15°C° 0 mm 1 mps 723 mmHg 34%
03:00 +15°C° 0 mm 1 mps 723 mmHg 32%
04:00 +15°C° 0 mm 1 mps 723 mmHg 31%
05:00 +15°C° 0 mm 1 mps 723 mmHg 30%
06:00 +15°C° 0 mm 1 mps 723 mmHg 29%
07:00 +15°C° 0 mm 1 mps 724 mmHg 28%
08:00 +19°C° 0 mm 1 mps 724 mmHg 24%
09:00 +21°C° 0 mm 1 mps 724 mmHg 21%
10:00 +24°C° 0 mm 1 mps 724 mmHg 17%
11:00 +25°C° 0 mm 1 mps 724 mmHg 17%
12:00 +26°C° 0 mm 1 mps 724 mmHg 18%
13:00 +26°C° 0 mm 2 mps 724 mmHg 18%
14:00 +25°C° 0 mm 1 mps 723 mmHg 23%
15:00 +25°C° 0 mm 1 mps 723 mmHg 27%
16:00 +24°C° 0 mm 1 mps 723 mmHg 31%
17:00 +22°C° 0 mm 1 mps 723 mmHg 35%
18:00 +21°C° 0 mm 1 mps 723 mmHg 39%
19:00 +19°C° 0 mm 1 mps 723 mmHg 43%
20:00 +18°C° 0 mm 1 mps 723 mmHg 42%
21:00 +18°C° 0 mm 1 mps 723 mmHg 40%
22:00 +18°C° 0 mm 1 mps 723 mmHg 39%
23:00 +16°C° 0 mm 1 mps 723 mmHg 38%

11 July, Saturday

Time Temperature Precipitation Wind Pressure Humidity
00:00 +16°C° 0 mm 1 mps 723 mmHg 38%
01:00 +16°C° 0 mm 1 mps 723 mmHg 37%
02:00 +15°C° 0 mm 1 mps 723 mmHg 35%
03:00 +15°C° 0 mm 1 mps 722 mmHg 34%
04:00 +15°C° 0 mm 1 mps 722 mmHg 32%
05:00 +15°C° 0 mm 1 mps 722 mmHg 31%
06:00 +15°C° 0 mm 1 mps 723 mmHg 30%
07:00 +15°C° 0 mm 1 mps 723 mmHg 30%
08:00 +19°C° 0 mm 1 mps 723 mmHg 25%
09:00 +21°C° 0 mm 1 mps 723 mmHg 21%
10:00 +24°C° 0 mm 1 mps 723 mmHg 17%
11:00 +25°C° 0 mm 1 mps 723 mmHg 17%
12:00 +26°C° 0 mm 1 mps 722 mmHg 17%
13:00 +27°C° 0 mm 1 mps 722 mmHg 17%
14:00 +26°C° 0 mm 1 mps 722 mmHg 21%
15:00 +25°C° 0 mm 1 mps 722 mmHg 25%
16:00 +25°C° 0 mm 1 mps 722 mmHg 30%
17:00 +23°C° 0 mm 1 mps 722 mmHg 32%
18:00 +22°C° 0 mm 1 mps 722 mmHg 35%
19:00 +20°C° 0 mm 1 mps 722 mmHg 37%
20:00 +20°C° 0 mm 1 mps 722 mmHg 35%
21:00 +19°C° 0 mm 1 mps 722 mmHg 33%
22:00 +19°C° 0 mm 1 mps 722 mmHg 31%
23:00 +18°C° 0 mm 2 mps 722 mmHg 29%
Show more